Theta_e
310 310 310 310 309 309 309 310 310 310 311 312 313 315 318 319 320 320 320 320 319 318 318 318 317 317 317 327 334 337 340 340 341 351 353 350 346 353 356 350 345 346 347 346 347 348 347
308 309 310 311 311 311 310 310 310 310 310 311 312 313 315 318 320 320 320 320 320 319 318 318 317 317 317 329 337 336 341 341 344 347 351 353 355 352 351 347 346 345 345 344 345 347 347
308 308 308 308 309 311 312 312 311 311 310 310 311 312 313 316 319 320 320 320 320 319 318 318 317 317 317 327 334 338 342 344 345 349 350 351 350 349 349 347 347 346 346 344 344 345 345
311 311 310 309 309 309 309 311 312 312 312 311 311 311 312 314 318 320 320 320 320 319 318 318 317 317 321 332 331 339 342 345 347 348 349 349 349 348 348 348 348 347 345 346 345 345 345
313 313 312 312 311 311 310 309 310 311 312 313 312 311 312 313 317 319 320 321 320 319 318 317 317 327 327 331 328 339 341 344 346 348 348 349 349 348 347 348 350 348 350 347 347 345 345
314 313 313 313 312 312 312 311 310 310 311 313 313 312 312 312 315 319 320 321 320 319 318 317 317 325 331 330 330 334 339 345 345 347 348 349 349 347 346 347 350 350 349 349 348 345 346
313 313 313 312 312 312 312 312 312 311 310 311 313 314 312 312 314 319 320 320 319 319 319 320 324 329 335 333 330 333 338 343 345 344 341 346 347 348 348 346 348 348 346 349 347 347 346
312 312 311 311 311 311 311 311 311 311 311 311 311 314 314 312 313 317 320 320 329 327 327 328 325 323 328 329 332 333 338 341 343 341 342 345 347 346 346 344 346 346 346 348 349 348 346
310 310 309 309 309 309 310 310 310 311 311 311 311 313 315 313 313 317 319 322 325 326 326 327 328 327 325 327 331 333 337 339 338 339 342 341 344 345 345 344 345 343 344 348 349 347 344
309 309 308 308 308 308 308 309 309 310 310 311 311 312 314 314 316 321 323 323 325 326 325 327 325 328 326 327 330 332 335 337 336 336 336 336 337 344 344 344 343 342 342 341 344 346 347
308 308 308 308 307 307 307 308 308 309 310 311 311 312 313 316 321 326 327 326 326 327 330 332 327 328 326 326 328 329 331 336 335 335 334 334 335 336 343 344 342 342 341 338 337 334 344
308 307 307 307 307 307 307 307 308 308 309 310 311 312 313 315 315 324 326 326 327 329 333 331 329 327 323 325 326 327 329 332 334 333 333 333 334 333 335 342 342 341 340 336 335 333 339
307 307 307 307 307 307 307 307 307 308 309 310 311 312 313 314 317 323 322 323 328 330 332 332 328 327 324 323 324 326 326 330 330 330 332 332 333 332 334 337 338 340 336 335 340 336 342
306 306 306 306 307 307 307 307 307 308 308 310 311 312 314 316 318 323 325 327 332 332 330 332 330 330 328 326 325 326 325 330 329 329 329 331 333 332 333 335 337 335 335 337 344 348 348
306 306 306 306 306 307 307 307 307 308 308 310 312 313 315 318 318 322 324 329 331 332 333 333 334 331 329 328 327 326 324 326 328 327 328 330 331 332 333 334 334 336 336 333 335 340 339
306 305 305 305 306 306 307 307 307 308 308 310 312 314 316 326 319 321 325 327 329 330 330 330 335 335 330 328 325 324 325 326 328 328 330 329 330 330 332 334 333 334 335 335 332 339 340
306 305 305 305 305 306 306 306 307 308 309 310 315 325 327 327 324 321 326 327 329 329 330 331 332 334 335 337 329 326 327 328 329 328 326 327 328 330 330 329 332 330 331 332 329 331 332
306 306 305 305 305 306 306 306 306 307 309 312 316 329 327 324 321 321 322 326 327 328 329 330 332 332 333 336 336 336 334 330 332 329 329 327 325 328 329 329 331 329 328 330 330 331 330
306 306 306 306 306 306 306 306 306 306 309 313 320 327 329 325 325 324 324 323 325 326 328 329 332 332 332 333 335 337 337 334 332 329 332 332 328 325 326 327 329 330 329 330 327 326 327
306 306 307 307 307 306 306 306 306 306 309 317 322 334 328 328 327 326 325 324 325 326 326 327 329 333 333 334 334 336 336 336 332 332 332 331 329 330 331 331 334 333 333 333 332 327 330
305 307 308 308 308 307 306 306 306 307 312 321 326 329 329 333 328 327 326 324 325 326 328 328 331 332 332 333 334 334 334 335 335 331 332 329 329 332 331 332 333 332 334 335 337 333 334
305 308 308 308 308 307 306 306 307 307 313 325 324 323 324 327 331 332 324 325 326 325 327 329 334 332 330 330 332 333 332 334 337 337 335 332 332 336 336 335 334 335 335 337 334 335 337
305 307 307 307 308 308 307 306 307 307 309 324 323 321 323 327 328 328 330 331 329 326 327 328 329 332 332 333 333 333 332 332 332 336 338 337 337 339 337 335 335 336 337 339 339 338 338
305 305 306 307 307 308 308 307 306 306 306 315 321 320 324 328 328 329 331 332 332 330 331 331 331 333 333 332 332 331 331 332 332 333 337 339 338 338 342 339 342 338 337 339 339 339 337
307 306 306 306 307 307 308 308 307 306 306 310 320 319 320 325 326 327 326 328 332 331 332 331 330 330 331 331 330 332 330 330 331 332 332 335 338 341 345 344 338 339 339 339 338 337 340
308 307 306 306 307 307 307 308 308 308 306 315 320 318 317 322 327 322 323 325 330 331 331 331 332 330 331 330 331 333 334 333 334 332 329 328 332 338 341 341 341 338 338 337 337 338 341
309 308 306 306 306 307 307 307 308 309 308 308 319 319 318 319 320 319 320 321 322 328 330 331 330 332 330 331 332 331 331 330 331 331 333 335 334 333 336 337 337 334 339 341 343 347 345
310 309 307 306 306 306 307 307 307 308 309 308 319 316 317 319 317 315 320 320 320 321 330 329 332 333 336 336 333 330 330 330 333 336 339 336 336 339 339 340 343 334 337 345 341 340 347
310 309 308 307 306 306 306 306 307 307 308 309 309 313 317 319 319 317 316 317 317 319 318 325 328 329 334 338 338 337 338 336 337 336 332 336 336 338 338 338 331 334 332 332 333 334 345
Wind_Speed
15 15 14 13 13 12 11 11 10 9 9 8 8 6 5 5 5 6 6 6 6 6 6 6 7 8 9 5 9 6 4 8 9 18 21 14 18 8 6 9 9 5 10 10 8 17 18
17 16 15 14 14 13 13 11 11 10 10 9 8 8 7 5 5 6 7 6 6 6 7 7 7 8 7 6 4 7 6 8 7 14 16 22 18 8 14 11 5 16 6 12 7 13 17
17 17 16 16 14 13 13 13 12 12 11 10 10 8 7 7 6 6 6 7 6 6 7 6 7 9 9 13 9 7 7 8 10 8 9 15 16 16 17 7 4 16 7 7 11 7 4
17 16 16 16 16 15 14 13 13 13 12 11 11 10 8 7 7 6 6 6 6 6 7 6 6 9 9 1 10 11 8 8 6 6 16 15 14 14 6 14 7 5 5 4 6 12 7
16 16 16 16 16 16 16 15 14 13 13 12 11 10 9 7 7 7 6 5 6 5 6 5 4 8 11 7 15 13 7 10 12 13 12 14 13 14 6 3 4 2 4 5 8 10 3
16 16 16 16 16 16 16 15 15 14 14 13 12 11 10 8 6 7 6 5 6 6 6 6 8 7 14 16 14 14 13 13 15 18 17 18 20 5 1 4 4 6 5 4 5 2 8
16 17 17 17 16 16 16 16 16 15 14 14 12 11 10 8 6 7 7 5 5 4 13 13 11 19 16 8 13 13 13 14 14 16 8 20 5 6 12 12 13 12 9 11 5 4 3
17 17 17 17 17 17 17 17 16 16 15 14 13 11 10 9 7 8 10 9 7 15 14 19 25 26 28 19 11 15 15 15 13 8 14 7 8 10 13 9 12 20 6 3 6 5 6
17 17 18 18 18 18 18 17 17 17 16 15 14 12 11 9 7 7 12 17 6 9 8 25 29 26 31 21 14 18 19 18 12 10 12 10 14 7 6 11 13 12 5 5 7 12 6
18 18 18 19 18 18 18 18 18 17 16 15 14 13 11 7 4 5 7 1 6 6 5 7 13 23 29 22 13 23 25 18 9 12 15 11 16 9 12 9 10 2 1 8 9 11 5
18 18 19 19 19 19 18 18 18 18 17 16 15 13 10 8 6 8 6 3 7 10 4 7 13 10 24 25 10 20 24 24 11 12 8 13 12 13 10 13 4 7 6 4 8 6 6
18 19 19 19 19 19 20 19 19 18 18 17 15 14 10 11 12 7 3 1 2 1 7 4 13 12 15 24 22 28 20 21 17 11 15 16 26 13 12 6 2 6 7 9 7 5 1
19 19 19 20 19 20 20 20 20 19 19 17 15 16 13 13 7 3 5 11 1 4 7 9 9 10 11 11 14 15 14 13 8 4 7 13 18 16 20 8 5 7 5 5 4 4 3
19 19 19 20 20 20 20 20 20 20 20 18 15 17 14 14 12 7 3 1 5 10 12 6 11 13 11 9 13 11 14 11 9 9 8 7 12 14 16 11 10 8 6 5 4 3 5
20 20 19 19 21 21 21 21 21 20 21 20 15 15 15 7 17 12 4 4 6 6 8 16 4 10 7 10 12 15 13 9 12 13 11 5 15 20 18 17 11 9 7 11 5 5 2
20 20 20 20 21 21 22 22 22 20 19 20 16 12 17 4 14 16 3 7 9 10 18 19 8 5 9 13 11 10 11 14 15 12 18 10 9 16 17 6 4 9 6 3 4 2 4
20 20 20 20 21 21 21 23 23 21 18 16 12 6 5 19 13 11 5 7 9 23 25 12 10 11 14 7 8 13 14 15 17 14 10 10 8 11 7 7 6 5 5 5 3 4 4
21 21 21 21 21 21 21 22 24 23 18 14 4 3 15 12 7 6 7 6 14 26 34 22 4 8 13 11 10 7 8 10 16 16 8 9 5 3 11 14 9 9 9 8 5 8 6
21 21 21 22 21 21 21 21 22 24 22 18 6 9 11 17 4 7 10 16 25 21 21 20 8 7 10 9 7 7 11 15 4 6 5 3 3 3 10 10 9 6 9 6 4 2 7
20 21 22 22 22 22 21 20 20 20 20 15 4 3 9 18 18 11 10 11 14 27 22 27 15 6 8 8 8 6 10 8 7 5 7 7 2 6 6 7 3 4 8 9 4 3 5
19 20 22 23 23 22 22 22 20 19 14 12 3 3 9 2 7 12 13 11 17 17 18 24 6 4 9 7 9 9 12 15 6 10 4 4 6 6 9 11 15 9 11 8 2 7 4
18 19 21 23 24 23 23 23 22 18 11 8 8 7 12 15 18 13 13 11 16 19 11 10 6 10 6 7 7 9 8 6 5 6 7 8 5 5 7 10 14 15 11 8 5 6 11
17 18 20 21 23 24 24 23 23 21 14 5 11 12 7 12 10 9 7 9 12 14 17 19 12 4 8 5 12 17 22 21 12 4 4 2 4 6 7 9 11 8 8 6 4 2 2
17 17 19 20 21 23 24 23 21 20 19 14 13 14 6 6 9 12 18 27 7 4 6 14 15 8 13 8 11 17 21 20 14 10 9 5 4 3 4 10 7 7 11 7 7 6 9
19 18 18 19 20 21 22 22 21 18 16 12 10 12 8 5 14 14 19 18 24 16 8 12 15 13 11 12 5 6 6 8 8 9 9 8 5 4 4 7 10 7 5 6 6 6 2
18 19 18 18 18 20 21 22 21 20 16 5 8 10 7 8 1 23 17 20 6 11 9 15 27 16 1 3 3 4 5 7 6 8 8 10 8 6 7 9 5 7 16 6 6 4 8
18 18 18 18 18 18 20 22 22 20 17 13 3 12 13 11 10 18 9 9 11 11 5 6 20 2 5 2 3 5 8 8 9 9 7 4 3 7 5 5 2 13 16 18 4 4 19
18 18 18 18 18 18 19 20 21 22 20 15 4 7 13 7 27 12 10 15 16 15 4 18 13 9 6 2 3 5 4 6 4 5 5 3 2 2 3 4 4 18 10 6 9 21 16
17 18 18 19 19 19 18 19 20 21 20 18 14 8 7 12 17 23 21 22 19 15 15 9 8 13 9 4 5 4 3 4 4 3 6 4 1 2 4 5 4 8 14 19 19 21 12
Wind_Direction
36 34 31 28 26 24 21 18 17 11 5 358 351 343 327 307 290 285 284 285 285 284 284 291 302 310 322 308 282 296 204 179 173 157 166 220 222 235 261 288 300 261 161 147 152 152 121
35 33 31 28 25 20 16 14 11 8 2 355 350 343 331 309 286 277 278 278 277 276 279 287 295 304 312 261 246 302 195 201 195 190 203 233 215 195 261 295 320 354 143 134 189 72 149
33 31 28 26 25 20 14 9 5 2 0 354 347 343 334 314 289 276 272 274 276 271 270 280 291 303 288 258 278 301 219 207 216 219 287 291 301 319 339 313 326 40 356 2 124 143 173
27 25 24 21 18 18 15 10 4 359 357 354 348 342 336 320 294 273 265 264 269 273 271 277 292 309 269 72 249 272 219 219 239 247 262 289 306 315 307 318 332 76 54 32 296 13 143
18 17 16 14 13 10 9 7 4 359 354 351 348 343 334 323 294 278 262 258 263 258 269 272 279 310 272 229 222 245 247 227 252 270 271 270 276 280 290 25 340 251 181 193 274 275 305
9 9 7 6 4 2 0 360 359 358 354 349 344 340 334 323 294 269 257 247 246 245 245 261 237 295 245 223 231 209 230 233 256 264 270 254 248 244 50 94 240 226 187 120 217 311 128
3 1 359 358 356 354 352 351 350 352 351 347 342 335 331 319 295 259 239 237 267 243 225 217 212 219 277 223 208 208 216 225 254 276 278 282 279 195 218 208 243 259 208 187 207 2 97
356 355 353 351 348 348 345 344 343 343 345 344 340 331 325 316 291 255 237 224 228 327 279 272 252 252 262 266 185 213 209 214 240 252 266 275 253 256 210 249 273 294 80 181 170 188 164
352 351 348 346 343 342 341 339 338 337 337 338 336 329 320 312 291 263 259 242 287 350 295 281 258 234 243 257 208 218 204 213 240 256 256 255 262 182 239 271 276 293 144 210 180 191 345
349 348 346 344 341 339 337 335 334 332 331 330 331 328 319 308 285 234 270 140 330 318 296 261 205 233 231 241 226 234 202 203 225 247 271 271 287 220 223 258 277 38 278 286 218 173 188
348 346 345 343 341 339 338 333 331 329 328 324 323 321 315 287 250 237 308 275 284 267 290 162 168 192 204 222 214 229 238 209 220 255 252 261 269 288 242 258 220 247 286 303 311 307 108
348 347 345 343 341 339 337 334 331 327 323 319 316 311 300 281 255 203 4 345 286 270 248 171 159 203 180 214 232 248 231 233 216 233 269 276 288 292 281 279 310 306 293 305 278 245 297
349 348 347 345 342 339 337 333 330 325 321 314 309 298 283 259 231 195 255 276 239 230 297 156 163 169 181 197 220 230 251 215 204 217 268 277 271 273 273 271 270 253 290 306 341 17 271
351 349 349 347 343 341 338 335 330 326 321 313 305 289 275 252 213 185 145 284 244 253 248 289 165 174 181 209 204 218 254 214 215 212 259 259 280 249 249 211 206 221 222 162 261 156 187
352 351 352 351 345 343 340 337 333 328 324 316 314 292 273 237 200 186 217 214 220 224 264 341 305 165 180 197 215 199 217 228 217 205 212 247 278 289 301 225 199 237 244 233 243 201 158
355 355 354 354 350 346 343 340 336 332 329 319 320 297 269 171 187 181 210 246 243 264 303 320 324 299 191 199 191 198 207 220 230 223 199 229 249 272 285 305 302 177 222 5 333 253 290
357 357 357 357 353 350 346 343 340 336 336 324 327 316 135 183 180 180 221 239 263 274 272 284 322 316 325 315 235 208 214 224 214 224 212 206 203 270 325 297 220 313 309 272 181 183 213
358 357 358 358 357 353 349 347 344 340 348 332 311 271 167 177 172 209 236 250 268 282 291 293 246 291 290 307 321 333 259 222 216 196 196 226 201 250 233 260 257 202 231 223 147 275 235
359 357 359 359 359 356 353 350 348 343 346 350 317 278 186 188 219 236 245 238 250 268 274 281 270 244 273 292 317 328 328 308 308 151 130 62 318 281 317 321 307 208 240 246 260 321 274
3 358 1 2 1 359 355 352 349 344 337 337 310 273 189 205 237 253 268 277 264 244 258 276 285 271 330 317 314 312 309 310 148 106 129 99 193 200 225 228 307 335 293 297 70 326 316
7 4 4 6 5 3 359 354 352 347 335 329 243 295 5 263 245 238 257 276 288 296 268 242 258 299 291 312 324 315 310 320 297 152 157 133 215 256 280 297 297 269 247 236 58 258 306
7 7 6 8 9 7 4 360 357 358 342 28 349 1 329 299 303 310 209 242 260 282 293 312 197 212 261 276 263 275 334 343 180 327 337 0 271 240 278 292 295 297 303 210 231 320 21
4 5 3 6 9 9 8 5 3 5 11 27 2 343 301 293 305 314 303 286 278 252 280 289 298 346 225 49 1 331 312 299 287 179 150 330 80 18 272 267 287 311 288 141 137 116 212
359 1 0 2 6 8 10 9 8 9 12 8 20 348 292 294 311 320 336 328 282 354 359 330 355 35 356 352 335 328 313 308 299 297 134 58 80 88 284 335 288 254 48 52 85 16 25
355 357 358 359 2 6 9 8 7 8 5 353 16 1 321 302 321 334 345 326 348 357 348 324 313 326 329 360 13 351 329 317 294 276 288 144 127 68 52 299 291 326 56 68 74 312 107
351 353 355 356 358 2 5 8 4 3 6 24 62 3 336 305 338 328 329 353 352 355 345 344 337 273 142 58 360 271 258 273 281 304 265 246 189 160 166 225 265 20 346 222 135 272 331
349 349 349 351 353 355 358 1 2 359 2 1 71 23 355 298 258 347 334 334 334 337 303 359 339 330 157 177 233 251 268 256 257 262 275 297 287 211 211 219 100 356 349 331 54 266 329
344 346 346 345 346 347 348 351 353 355 354 1 64 14 350 298 289 286 332 332 330 335 356 331 333 3 340 347 210 244 267 273 294 295 169 95 51 42 69 54 165 344 19 60 302 335 44
339 341 341 342 341 340 340 341 343 344 346 347 343 331 308 280 266 286 283 277 270 269 299 308 300 341 348 7 14 335 337 340 352 341 338 62 114 258 154 194 198 49 61 348 350 336 63